Theta_e
312 315 317 318 316 315 315 316 316 316 317 317 317 318 318 317 319 327 328 323 322 322 323 326 327 327 326 325 326 326 325 325 327 329 331 330 330 330 330 331 330 331 330 331 334
314 317 319 317 315 313 311 312 312 314 314 316 318 318 318 319 318 325 321 321 321 321 326 325 326 326 328 327 328 327 327 328 328 328 328 327 327 327 326 327 329 329 331 329 328
316 319 318 316 313 311 312 312 310 311 312 314 316 319 319 320 325 326 321 321 320 320 324 324 324 326 326 327 328 328 328 327 327 327 327 327 326 326 326 326 326 328 329 328 327
318 319 317 313 309 309 309 308 308 308 308 310 313 317 320 325 325 323 320 320 319 321 323 323 324 324 325 325 326 326 326 325 326 326 326 325 325 324 324 325 327 326 326 325 326
319 318 314 310 307 306 306 305 305 306 307 308 310 314 320 326 323 321 320 320 320 321 322 322 322 324 325 324 323 324 325 326 326 324 324 324 324 324 323 325 326 325 324 325 325
318 316 311 308 306 307 305 304 304 305 306 307 309 311 324 325 324 324 323 324 323 322 322 321 321 322 321 322 324 324 324 324 323 323 323 324 324 323 323 324 324 324 324 324 324
316 312 309 308 306 305 304 304 304 305 306 307 307 312 321 324 323 323 323 324 324 323 323 322 321 323 322 322 323 322 322 322 323 323 323 323 322 323 324 325 324 324 324 325 325
315 311 309 306 305 304 303 303 304 305 306 307 308 319 323 319 320 322 319 323 323 323 322 322 322 323 323 324 323 324 325 325 325 324 324 324 324 325 326 326 326 325 325 325 325
312 308 305 302 302 303 303 304 306 306 308 313 319 323 321 320 321 319 318 322 321 323 322 322 321 323 324 325 325 326 328 328 327 326 326 326 326 326 326 326 326 326 326 326 326
307 304 302 300 301 302 304 307 313 312 318 319 318 319 320 320 318 317 319 320 320 321 323 323 325 325 326 326 328 327 326 325 324 324 324 324 325 325 324 322 323 323 325 327 327
305 302 300 300 301 305 309 317 321 325 321 318 318 318 318 317 317 317 320 320 320 320 323 325 325 325 325 324 324 322 322 322 322 322 322 322 322 322 322 322 323 325 326 326 326
300 299 299 300 302 313 316 319 314 315 319 317 316 316 317 316 318 318 319 321 319 319 319 323 324 323 322 322 321 319 319 320 320 321 323 321 320 321 322 323 326 325 325 325 325
298 298 299 300 310 314 313 313 314 316 319 319 317 316 316 315 319 317 319 320 320 318 318 318 319 319 319 318 319 320 320 319 318 319 318 319 319 319 320 324 325 324 324 323 323
298 298 299 301 315 313 314 312 318 318 321 318 315 315 314 316 320 316 317 320 324 322 321 319 319 320 319 318 320 322 318 318 318 318 318 318 319 320 320 325 325 323 322 321 320
298 298 300 307 313 313 312 314 320 324 326 316 314 312 314 316 317 317 316 320 322 318 318 320 321 319 318 318 317 317 319 319 318 316 317 317 317 319 321 326 325 321 320 319 318
298 298 306 310 312 311 314 319 323 320 322 314 313 313 314 315 315 317 316 316 317 317 317 319 319 317 319 316 316 317 318 315 314 316 318 316 316 315 316 317 321 320 319 318 317
297 297 305 309 314 311 317 324 318 322 316 314 313 313 315 313 313 316 314 314 313 313 315 315 315 319 318 314 312 312 312 312 314 315 314 315 314 316 316 317 320 320 319 318 317
298 303 304 309 310 311 319 321 323 317 317 312 311 312 313 312 311 312 313 314 311 310 311 313 315 317 313 311 310 311 311 313 313 313 314 312 312 314 318 320 319 318 318 317 317
300 308 310 311 308 314 320 326 320 314 313 312 310 311 313 311 310 310 311 311 309 309 310 310 311 311 310 309 310 311 310 312 312 312 313 313 314 314 317 320 321 320 319 318 316
308 309 310 306 306 316 319 318 316 314 311 311 311 311 312 311 309 310 310 309 310 308 308 310 309 310 309 310 311 310 310 310 310 310 312 311 312 312 315 314 314 316 313 311 311
309 310 312 304 308 314 321 315 314 311 310 312 311 311 310 310 309 309 309 309 308 309 308 309 309 311 311 310 310 310 310 310 310 312 314 316 314 314 314 312 312 311 310 310 310
310 311 310 306 310 310 316 314 306 311 310 310 311 310 310 310 309 309 309 310 307 307 308 310 310 309 310 310 310 309 309 312 313 312 312 311 312 312 312 311 309 308 308 309 309
310 312 308 310 310 314 314 312 311 310 310 310 310 310 309 310 309 309 309 309 307 308 310 308 308 307 309 310 310 311 310 309 308 310 310 311 311 310 310 309 308 307 308 308 308
314 316 308 308 311 313 314 312 310 309 310 309 310 309 309 310 309 310 309 310 308 307 306 305 306 308 310 310 309 308 307 307 307 308 308 308 308 309 308 308 308 307 307 307 307
313 316 310 307 308 312 314 312 311 309 309 309 309 309 309 310 310 309 309 311 309 308 306 306 309 310 309 308 308 307 307 306 306 306 306 307 306 307 307 307 307 307 307 306 307
313 310 309 313 310 309 311 311 311 309 308 308 309 309 309 309 309 309 309 309 309 308 307 308 309 309 309 307 306 306 306 307 307 306 306 306 306 307 307 306 306 306 306 306 308
306 308 313 309 311 311 313 311 310 310 309 309 308 309 308 309 308 308 307 308 308 307 307 307 308 309 308 307 307 309 307 307 306 306 305 306 307 306 307 307 306 306 306 307 306
Wind_Speed
4 6 7 9 11 13 14 15 16 17 19 20 21 21 22 19 11 7 3 5 9 12 17 19 21 9 10 5 8 12 9 11 11 17 10 12 8 8 10 11 13 11 7 3 8
4 5 7 10 13 14 16 17 18 18 19 20 21 21 22 21 13 7 5 7 8 12 15 17 14 14 8 7 6 5 10 13 14 12 13 14 16 16 16 19 10 14 10 16 14
4 6 8 11 13 15 16 17 19 19 20 20 21 22 22 19 9 6 6 7 9 14 16 16 14 13 14 13 8 7 11 18 13 10 12 12 15 17 17 16 15 11 14 12 13
4 7 9 12 14 15 16 17 18 20 21 21 20 22 22 8 4 4 6 8 10 13 16 14 13 12 11 12 12 7 13 14 16 12 12 14 16 14 15 16 12 11 10 10 13
3 6 9 11 14 15 16 17 19 19 20 20 19 18 14 8 8 4 8 10 12 9 11 9 12 12 11 16 17 16 14 17 17 18 15 17 11 14 19 13 5 9 12 13 13
4 7 9 11 14 15 16 17 18 18 18 19 17 16 7 9 4 7 8 10 10 10 12 12 10 13 11 13 12 16 15 17 19 20 21 13 7 14 20 14 3 5 12 15 13
5 7 10 12 15 16 17 18 18 17 15 15 13 10 8 5 5 8 11 11 9 10 10 14 14 10 15 18 13 16 19 20 20 23 3 7 14 19 17 14 17 11 14 14 18
6 8 11 13 14 16 18 18 17 15 13 11 9 5 5 5 6 6 12 11 5 10 9 13 12 13 15 15 17 19 19 15 16 1 4 8 14 16 14 20 22 17 9 8 17
6 8 11 13 15 16 18 17 16 12 10 8 6 4 2 1 7 11 10 10 12 11 6 8 11 11 13 14 13 17 12 17 16 24 22 20 24 19 19 17 19 18 16 6 7
5 8 11 14 15 17 19 15 15 12 6 5 9 5 1 7 13 11 8 12 14 11 12 12 9 11 13 10 9 14 15 14 19 19 19 20 21 18 18 20 18 17 12 9 14
5 7 10 13 15 16 20 8 4 4 4 4 8 8 8 14 10 9 12 15 13 12 12 7 6 11 10 9 11 13 15 18 18 18 18 17 20 21 19 19 17 11 14 13 12
4 7 9 11 11 13 10 5 5 4 6 5 4 8 1 8 9 2 14 10 11 9 14 6 11 11 9 12 14 15 17 17 17 17 18 20 24 22 22 5 10 9 10 9 9
3 5 8 7 6 9 13 7 5 4 5 6 0 5 3 8 5 9 11 11 8 10 6 9 10 11 8 10 11 12 13 16 19 20 19 21 20 20 21 7 13 11 8 8 11
1 4 6 3 3 4 3 7 6 4 4 7 4 3 2 4 2 5 9 9 6 7 9 7 8 7 9 10 11 10 17 18 18 18 15 16 19 18 18 14 13 10 6 8 9
0 3 5 7 3 3 5 6 5 3 4 4 6 3 2 3 3 4 6 7 7 9 5 6 3 7 9 12 13 15 14 16 19 19 20 16 11 12 10 15 11 7 7 7 8
2 3 3 3 4 4 5 4 3 3 4 4 2 1 5 2 2 2 1 3 6 9 10 11 2 2 7 12 12 10 14 19 18 14 12 17 15 11 11 15 1 10 6 8 9
5 5 4 3 3 6 3 3 3 3 2 6 2 3 0 3 1 5 2 8 9 8 5 11 4 10 7 12 13 18 14 7 4 5 9 21 14 13 18 12 10 10 10 10 10
8 8 4 2 2 2 2 4 5 2 6 4 2 3 3 1 4 1 3 3 13 11 9 6 1 5 7 7 8 14 6 4 6 9 15 19 9 9 15 16 12 9 8 10 11
9 5 2 3 3 3 3 4 5 7 5 2 3 6 6 4 5 3 4 6 6 10 7 5 3 10 8 5 5 6 7 10 9 14 12 11 23 17 19 17 18 16 15 12 14
6 4 5 3 4 3 3 3 6 3 3 2 6 1 4 6 4 3 3 4 3 6 7 3 6 8 4 6 11 11 7 6 5 5 10 11 25 11 17 21 23 10 18 21 20
6 3 2 4 7 2 4 6 5 3 2 2 4 1 4 1 6 2 5 5 1 5 6 6 3 5 13 13 11 7 8 8 10 9 11 12 13 7 26 26 19 24 20 22 21
5 3 5 9 4 5 7 6 2 6 3 3 4 3 4 1 3 2 2 5 4 5 5 7 4 6 17 18 6 7 6 5 5 13 12 12 18 23 21 20 22 23 24 22 20
5 4 4 4 6 8 2 5 4 6 6 5 3 2 1 3 2 3 1 7 3 5 6 8 3 6 2 8 6 3 12 17 17 14 19 15 13 13 20 20 20 21 17 19 19
3 3 3 4 8 8 10 10 7 3 4 2 4 3 4 4 2 1 3 4 2 4 6 3 4 8 8 13 16 20 19 18 17 12 16 20 25 21 23 22 18 17 19 15 18
3 3 3 5 8 9 11 10 12 6 4 6 4 8 7 4 4 4 5 7 7 9 1 2 5 10 14 18 19 21 21 20 18 17 17 22 26 21 20 21 22 20 18 17 12
3 2 3 1 11 12 7 8 12 8 9 8 7 7 6 5 4 1 2 2 5 8 3 4 6 12 16 19 15 17 22 20 15 15 17 21 24 20 21 22 21 18 20 20 8
1 4 4 4 3 8 8 9 10 12 3 7 7 4 5 7 8 8 5 7 7 5 7 6 4 7 5 12 18 10 9 15 18 16 18 19 21 22 23 25 28 25 18 11 6
Wind_Direction
354 356 358 3 3 358 356 355 354 354 352 352 353 353 351 342 311 294 358 1 353 332 323 292 274 314 292 302 258 270 274 268 320 2 359 357 350 309 306 279 299 286 203 3 69
343 349 355 355 354 353 351 350 350 349 348 348 349 348 345 339 315 45 44 27 350 342 343 347 345 327 310 255 262 274 291 295 352 343 336 338 336 327 309 303 306 301 54 29 4
331 347 349 350 350 348 347 346 345 346 346 346 346 345 341 334 280 69 35 21 355 345 317 307 307 299 294 298 277 313 312 319 324 349 347 325 310 316 319 309 315 11 358 352 327
328 344 345 347 346 345 344 342 342 343 343 343 344 342 338 315 357 66 22 355 334 329 303 335 344 319 327 303 312 307 298 303 312 341 312 296 299 313 304 297 23 356 348 327 302
318 333 339 343 342 343 342 342 342 342 342 341 342 344 346 302 63 19 11 344 324 319 319 329 311 328 311 326 314 303 313 328 321 309 294 285 299 315 306 309 349 342 332 309 310
305 324 332 336 338 339 340 341 341 341 343 342 342 341 297 312 22 348 338 321 303 309 310 311 330 322 298 290 318 303 303 299 295 286 277 289 351 302 284 272 277 328 316 313 310
307 320 328 330 334 336 336 337 338 337 341 345 345 349 295 314 351 348 329 312 298 306 297 299 306 302 304 299 289 313 290 289 283 277 341 3 302 281 325 336 316 334 311 317 304
304 318 327 328 331 334 334 332 330 330 334 343 338 333 290 24 323 326 335 325 328 307 291 291 283 275 273 275 281 279 274 276 278 238 241 251 300 302 330 325 311 297 263 291 306
304 321 325 328 330 330 331 327 321 316 321 321 314 251 309 146 11 326 322 318 313 294 272 289 271 269 278 275 281 272 317 337 336 335 332 325 311 318 322 302 300 307 306 298 321
312 324 329 335 336 337 331 318 304 308 292 281 264 258 320 344 338 313 291 314 296 294 283 233 246 255 248 283 322 341 332 319 313 322 319 315 306 310 311 303 295 283 297 39 39
309 326 337 340 345 355 351 331 264 190 262 353 323 303 315 333 292 278 354 300 278 258 263 310 283 285 12 353 330 321 313 307 300 309 319 310 309 304 298 283 283 61 57 47 35
338 339 338 343 358 20 2 27 38 329 311 211 277 270 317 324 288 82 346 304 327 292 314 263 258 35 1 330 320 308 296 299 313 324 330 312 296 287 282 309 78 68 70 54 36
341 345 340 347 23 51 56 41 348 325 266 190 326 297 1 310 345 356 348 319 301 289 311 302 306 15 350 320 310 302 306 328 324 316 303 291 298 309 305 143 104 85 70 56 47
357 356 346 353 44 360 60 358 354 341 272 146 171 99 233 295 229 340 353 325 275 331 334 292 25 357 336 312 343 320 336 321 313 311 306 316 296 300 303 127 110 97 76 48 42
111 30 21 29 353 24 351 340 337 283 275 40 98 26 268 288 325 94 335 314 296 323 297 324 322 354 309 358 337 302 330 301 299 295 294 297 275 299 356 62 106 108 89 61 42
113 110 79 65 68 33 335 334 307 219 250 115 94 124 200 30 35 306 323 278 265 281 269 269 342 197 13 321 292 283 294 314 289 263 265 279 348 324 344 349 3 134 92 57 31
127 136 64 351 53 345 1 253 205 254 172 128 90 255 179 76 92 329 7 40 31 331 342 324 305 108 26 332 336 2 335 315 317 312 299 348 331 297 317 335 18 53 56 39 16
123 106 103 30 356 41 294 223 242 171 237 71 116 214 256 2 114 318 277 180 50 349 299 317 244 34 26 1 332 311 297 302 303 326 311 313 261 304 350 62 56 50 34 12 353
117 105 118 296 74 81 238 224 214 309 32 184 179 245 160 175 292 262 50 29 43 17 359 335 249 4 304 10 334 336 303 354 298 286 281 279 291 330 33 53 28 359 340 340 328
139 130 140 275 120 119 233 240 244 12 343 307 250 289 298 122 225 234 130 59 56 35 353 28 295 309 354 334 262 223 295 321 307 302 297 305 304 290 21 355 346 319 340 340 341
154 182 150 173 118 187 227 232 206 112 287 331 300 293 295 156 303 181 70 105 31 14 331 315 258 289 298 281 300 323 274 317 318 291 287 299 280 334 335 333 331 328 332 329 324
158 194 165 149 182 203 228 234 335 165 205 164 297 304 245 142 211 286 330 55 40 342 335 37 313 290 279 281 317 20 308 287 282 299 291 297 283 296 299 328 334 331 328 334 343
182 133 161 165 221 214 122 144 246 176 185 169 165 313 282 208 235 268 118 80 34 347 24 3 280 308 340 113 133 257 339 319 302 298 285 285 274 315 319 322 326 316 335 332 322
253 138 131 203 275 279 176 194 187 298 147 212 135 187 196 200 218 174 228 139 83 48 70 0 275 278 277 298 299 298 304 300 292 282 286 275 294 311 315 315 319 326 324 318 318
340 201 178 189 226 239 176 192 183 173 194 196 183 216 200 206 221 214 252 136 193 147 230 253 275 298 293 295 298 293 291 294 293 292 289 300 295 305 317 327 322 314 302 320 333
158 217 177 316 206 215 187 206 193 173 166 195 238 194 223 226 242 23 313 228 262 150 250 259 286 308 294 286 287 315 300 289 286 306 305 307 301 311 315 302 293 314 319 317 15
50 302 293 109 218 198 194 218 215 140 19 341 201 177 198 41 47 35 0 326 304 276 287 291 300 324 279 332 317 285 10 329 313 321 315 306 318 331 344 358 347 331 339 357 6